Precipitable_Water
1.63 1.68 1.77 1.74 1.74 1.76 1.80 1.81 1.82 1.81 1.81 1.77 1.76 1.70 1.67 1.67 1.68 1.71 1.75 1.70 1.70 1.69 1.71 1.61 1.54 1.56 1.53 1.44 1.47 1.54 1.52 1.46 1.50 1.57 1.52 1.41 1.43 1.46 1.45 1.59 1.64 1.66 1.69 1.71 1.73 1.72 1.70 1.70 1.70 1.69 1.67 1.63 1.55 1.46 1.44 1.47 1.43 1.45 1.50 1.56 1.58 1.59 1.56 1.56 1.60 1.65 1.68 1.67 1.64 1.61 1.58 1.57 1.58 1.57 1.54 1.49 1.50 1.54 1.58 1.59 1.61 1.63 1.64 1.63 1.64
1.66 1.71 1.72 1.70 1.73 1.77 1.76 1.78 1.81 1.82 1.80 1.75 1.80 1.74 1.65 1.70 1.76 1.78 1.76 1.73 1.66 1.66 1.70 1.56 1.52 1.53 1.55 1.45 1.47 1.49 1.50 1.45 1.47 1.52 1.51 1.42 1.44 1.49 1.48 1.51 1.63 1.67 1.68 1.67 1.71 1.70 1.69 1.71 1.73 1.71 1.68 1.67 1.64 1.57 1.48 1.45 1.48 1.46 1.44 1.46 1.48 1.50 1.53 1.59 1.65 1.68 1.67 1.65 1.62 1.61 1.60 1.57 1.56 1.59 1.61 1.61 1.62 1.62 1.61 1.64 1.67 1.65 1.64 1.64 1.63
1.69 1.72 1.75 1.73 1.72 1.75 1.73 1.78 1.77 1.81 1.80 1.76 1.81 1.75 1.72 1.72 1.78 1.82 1.81 1.77 1.71 1.73 1.69 1.56 1.50 1.50 1.54 1.46 1.47 1.48 1.46 1.46 1.47 1.50 1.51 1.48 1.47 1.48 1.51 1.47 1.55 1.64 1.68 1.66 1.69 1.70 1.68 1.71 1.73 1.72 1.68 1.66 1.66 1.63 1.59 1.53 1.51 1.52 1.53 1.54 1.54 1.56 1.57 1.59 1.60 1.62 1.62 1.63 1.62 1.60 1.60 1.59 1.61 1.66 1.66 1.66 1.68 1.68 1.68 1.69 1.69 1.67 1.65 1.62 1.62
1.73 1.74 1.72 1.71 1.70 1.73 1.76 1.77 1.75 1.82 1.82 1.77 1.78 1.81 1.80 1.79 1.81 1.86 1.90 1.88 1.77 1.75 1.71 1.60 1.52 1.51 1.53 1.47 1.45 1.42 1.42 1.42 1.45 1.49 1.49 1.52 1.54 1.54 1.55 1.46 1.50 1.60 1.65 1.67 1.69 1.70 1.69 1.74 1.73 1.73 1.70 1.66 1.65 1.63 1.63 1.62 1.58 1.56 1.55 1.54 1.53 1.55 1.55 1.57 1.56 1.57 1.56 1.58 1.58 1.58 1.58 1.59 1.62 1.63 1.62 1.62 1.62 1.62 1.62 1.61 1.59 1.59 1.58 1.58 1.57
1.73 1.74 1.73 1.71 1.68 1.70 1.71 1.76 1.76 1.80 1.80 1.81 1.83 1.83 1.82 1.82 1.84 1.91 1.85 1.84 1.78 1.71 1.67 1.61 1.52 1.50 1.52 1.46 1.39 1.36 1.40 1.43 1.45 1.51 1.47 1.50 1.56 1.62 1.65 1.64 1.60 1.54 1.61 1.65 1.66 1.70 1.71 1.70 1.68 1.67 1.64 1.64 1.64 1.63 1.63 1.63 1.62 1.62 1.60 1.58 1.56 1.52 1.50 1.52 1.54 1.54 1.55 1.57 1.55 1.56 1.57 1.57 1.58 1.58 1.57 1.57 1.56 1.54 1.52 1.51 1.52 1.52 1.52 1.51 1.49
1.70 1.72 1.75 1.71 1.70 1.70 1.70 1.74 1.76 1.80 1.79 1.82 1.80 1.79 1.78 1.79 1.80 1.83 1.77 1.76 1.71 1.65 1.60 1.52 1.52 1.51 1.45 1.43 1.42 1.39 1.40 1.39 1.43 1.48 1.51 1.50 1.59 1.63 1.68 1.66 1.63 1.59 1.59 1.59 1.62 1.67 1.68 1.68 1.67 1.63 1.62 1.61 1.62 1.62 1.63 1.65 1.65 1.65 1.63 1.62 1.60 1.59 1.56 1.54 1.52 1.53 1.54 1.57 1.57 1.58 1.60 1.62 1.64 1.66 1.65 1.65 1.63 1.62 1.62 1.62 1.62 1.63 1.66 1.66 1.64
1.69 1.71 1.73 1.72 1.71 1.71 1.73 1.76 1.80 1.77 1.74 1.76 1.79 1.83 1.81 1.75 1.75 1.69 1.71 1.72 1.68 1.61 1.54 1.51 1.47 1.43 1.40 1.38 1.38 1.39 1.40 1.34 1.39 1.45 1.48 1.52 1.60 1.64 1.68 1.66 1.63 1.60 1.59 1.58 1.61 1.63 1.65 1.66 1.66 1.62 1.61 1.61 1.63 1.63 1.64 1.64 1.65 1.65 1.64 1.63 1.62 1.62 1.65 1.66 1.63 1.61 1.61 1.62 1.64 1.65 1.64 1.65 1.66 1.67 1.71 1.70 1.69 1.65 1.65 1.67 1.69 1.69 1.69 1.71 1.72
1.64 1.71 1.71 1.73 1.74 1.74 1.76 1.80 1.79 1.76 1.73 1.76 1.77 1.75 1.72 1.70 1.72 1.69 1.61 1.58 1.55 1.46 1.47 1.45 1.46 1.44 1.42 1.35 1.34 1.34 1.33 1.32 1.33 1.40 1.47 1.55 1.63 1.68 1.64 1.60 1.60 1.59 1.58 1.57 1.57 1.61 1.63 1.64 1.65 1.63 1.64 1.63 1.64 1.65 1.64 1.65 1.66 1.66 1.66 1.64 1.63 1.62 1.64 1.66 1.66 1.65 1.65 1.66 1.66 1.67 1.67 1.66 1.65 1.66 1.69 1.68 1.67 1.69 1.67 1.68 1.66 1.69 1.70 1.68 1.68
1.60 1.67 1.69 1.70 1.76 1.79 1.82 1.82 1.83 1.78 1.74 1.76 1.71 1.73 1.69 1.57 1.60 1.66 1.62 1.49 1.48 1.39 1.33 1.35 1.38 1.41 1.38 1.32 1.31 1.32 1.27 1.30 1.31 1.34 1.44 1.52 1.60 1.65 1.67 1.66 1.67 1.64 1.63 1.60 1.59 1.60 1.59 1.60 1.66 1.65 1.65 1.64 1.64 1.65 1.65 1.63 1.65 1.69 1.67 1.66 1.65 1.63 1.64 1.65 1.65 1.65 1.66 1.66 1.66 1.66 1.68 1.68 1.67 1.65 1.64 1.66 1.66 1.66 1.64 1.65 1.68 1.69 1.68 1.66 1.68
1.59 1.63 1.66 1.71 1.76 1.82 1.85 1.84 1.83 1.81 1.75 1.73 1.71 1.74 1.66 1.56 1.50 1.61 1.62 1.55 1.42 1.33 1.29 1.31 1.33 1.32 1.31 1.32 1.34 1.34 1.31 1.30 1.30 1.36 1.42 1.48 1.55 1.58 1.63 1.65 1.65 1.63 1.62 1.60 1.59 1.58 1.57 1.59 1.64 1.68 1.67 1.65 1.65 1.67 1.66 1.65 1.64 1.66 1.67 1.68 1.66 1.64 1.66 1.64 1.65 1.65 1.67 1.69 1.67 1.67 1.66 1.69 1.68 1.66 1.64 1.63 1.63 1.63 1.62 1.62 1.63 1.62 1.62 1.61 1.62
1.59 1.60 1.59 1.66 1.72 1.80 1.81 1.80 1.81 1.75 1.70 1.67 1.62 1.66 1.63 1.58 1.49 1.49 1.56 1.54 1.45 1.32 1.31 1.32 1.28 1.28 1.26 1.30 1.34 1.35 1.34 1.33 1.33 1.37 1.45 1.48 1.51 1.56 1.59 1.52 1.55 1.62 1.58 1.53 1.56 1.56 1.55 1.61 1.66 1.68 1.68 1.69 1.68 1.68 1.67 1.67 1.67 1.66 1.65 1.65 1.66 1.67 1.63 1.63 1.64 1.65 1.65 1.66 1.64 1.64 1.67 1.66 1.66 1.65 1.63 1.60 1.58 1.57 1.56 1.54 1.52 1.51 1.51 1.51 1.50
1.55 1.55 1.54 1.59 1.67 1.74 1.77 1.80 1.78 1.73 1.63 1.61 1.59 1.58 1.55 1.54 1.48 1.46 1.43 1.44 1.45 1.31 1.25 1.24 1.22 1.22 1.22 1.29 1.33 1.30 1.28 1.30 1.32 1.39 1.47 1.50 1.53 1.57 1.51 1.51 1.44 1.42 1.43 1.48 1.49 1.51 1.53 1.56 1.60 1.63 1.66 1.69 1.70 1.67 1.68 1.67 1.67 1.69 1.63 1.68 1.65 1.63 1.66 1.62 1.64 1.66 1.67 1.63 1.62 1.61 1.62 1.62 1.60 1.56 1.53 1.50 1.48 1.47 1.45 1.42 1.39 1.37 1.34 1.32 1.29
1.50 1.48 1.47 1.56 1.63 1.70 1.72 1.73 1.74 1.71 1.64 1.61 1.63 1.62 1.60 1.58 1.49 1.48 1.41 1.32 1.27 1.25 1.23 1.24 1.10 1.05 1.16 1.19 1.25 1.31 1.29 1.28 1.29 1.40 1.44 1.50 1.53 1.51 1.47 1.43 1.35 1.31 1.24 1.35 1.40 1.41 1.46 1.51 1.55 1.58 1.60 1.62 1.64 1.64 1.75 1.74 1.67 1.65 1.59 1.59 1.60 1.61 1.66 1.67 1.63 1.64 1.63 1.61 1.57 1.55 1.54 1.50 1.46 1.42 1.37 1.34 1.33 1.27 1.22 1.18 1.13 1.07 1.01 0.99 0.98
1.45 1.44 1.46 1.52 1.57 1.63 1.66 1.68 1.70 1.69 1.69 1.69 1.63 1.65 1.59 1.54 1.51 1.39 1.46 1.30 1.15 1.17 1.20 1.18 1.02 0.98 0.95 0.99 1.09 1.23 1.30 1.26 1.30 1.35 1.43 1.50 1.52 1.47 1.39 1.30 1.25 1.22 1.24 1.26 1.32 1.35 1.38 1.43 1.49 1.51 1.51 1.52 1.54 1.55 1.59 1.60 1.60 1.56 1.54 1.55 1.59 1.59 1.59 1.57 1.58 1.58 1.56 1.54 1.51 1.47 1.42 1.36 1.27 1.19 1.14 1.11 1.08 1.02 0.95 0.89 0.84 0.80 0.81 0.85 0.89
1.46 1.44 1.43 1.50 1.56 1.59 1.62 1.68 1.67 1.69 1.66 1.61 1.59 1.54 1.53 1.50 1.46 1.40 1.32 1.30 1.21 1.18 1.17 1.16 0.98 1.09 1.07 0.93 0.90 0.89 0.99 1.13 1.26 1.35 1.42 1.46 1.47 1.39 1.32 1.28 1.25 1.27 1.31 1.31 1.27 1.32 1.37 1.39 1.41 1.43 1.40 1.39 1.43 1.47 1.50 1.50 1.50 1.51 1.54 1.53 1.51 1.50 1.50 1.49 1.47 1.47 1.44 1.42 1.38 1.29 1.22 1.08 1.00 0.98 0.97 0.95 0.89 0.84 0.80 0.77 0.80 0.83 0.89 0.91 0.91
1.48 1.47 1.44 1.48 1.54 1.56 1.62 1.66 1.66 1.71 1.68 1.59 1.53 1.47 1.52 1.52 1.47 1.47 1.41 1.16 1.17 1.06 1.18 1.12 1.07 1.06 0.83 0.86 0.88 0.90 0.79 0.92 1.06 1.24 1.38 1.41 1.43 1.39 1.38 1.35 1.35 1.38 1.37 1.35 1.32 1.32 1.35 1.40 1.39 1.41 1.41 1.40 1.41 1.45 1.46 1.45 1.43 1.45 1.43 1.39 1.37 1.36 1.36 1.36 1.35 1.31 1.29 1.24 1.13 1.01 0.93 0.91 0.90 0.90 0.88 0.86 0.84 0.86 0.83 0.87 0.91 0.96 0.97 1.01 1.01
1.47 1.48 1.45 1.44 1.51 1.57 1.59 1.63 1.67 1.70 1.70 1.63 1.55 1.50 1.51 1.53 1.50 1.46 1.41 1.28 1.11 1.03 1.12 1.17 1.12 1.14 1.00 0.91 0.81 0.81 0.83 0.94 1.06 1.10 1.27 1.29 1.37 1.39 1.39 1.37 1.38 1.37 1.38 1.33 1.37 1.35 1.38 1.40 1.41 1.41 1.40 1.39 1.41 1.43 1.44 1.37 1.29 1.32 1.31 1.30 1.30 1.28 1.27 1.29 1.24 1.18 1.09 1.00 0.92 0.87 0.88 0.91 0.91 0.90 0.90 0.91 0.93 0.94 0.97 1.00 1.06 1.09 1.10 1.11 1.10
1.46 1.46 1.46 1.43 1.45 1.54 1.60 1.61 1.63 1.69 1.68 1.66 1.63 1.55 1.53 1.51 1.50 1.47 1.43 1.39 1.24 1.01 1.02 1.20 1.19 1.16 1.12 1.05 0.97 0.88 0.90 1.01 1.05 0.88 1.21 1.26 1.30 1.37 1.34 1.33 1.36 1.37 1.38 1.34 1.34 1.31 1.39 1.37 1.41 1.38 1.40 1.39 1.37 1.35 1.32 1.28 1.22 1.22 1.20 1.21 1.24 1.22 1.20 1.18 1.08 1.02 1.01 0.94 0.93 0.92 0.94 0.95 0.94 0.96 0.97 1.01 1.03 1.07 1.09 1.13 1.15 1.15 1.14 1.15 1.14
1.43 1.44 1.46 1.44 1.43 1.48 1.55 1.61 1.64 1.68 1.70 1.65 1.61 1.56 1.53 1.53 1.55 1.50 1.44 1.39 1.25 1.00 0.99 1.07 1.17 1.17 1.19 1.16 1.16 1.18 1.15 1.01 0.94 1.01 0.92 1.06 1.22 1.27 1.27 1.32 1.34 1.35 1.33 1.32 1.32 1.34 1.36 1.40 1.39 1.38 1.37 1.39 1.37 1.33 1.26 1.19 1.16 1.13 1.11 1.14 1.15 1.13 1.12 1.10 1.05 1.08 1.03 1.01 0.99 0.99 1.00 1.01 1.01 1.04 1.03 1.05 1.11 1.14 1.15 1.15 1.14 1.15 1.15 1.16 1.16
1.42 1.41 1.42 1.42 1.42 1.43 1.49 1.56 1.61 1.67 1.70 1.62 1.59 1.61 1.58 1.57 1.59 1.53 1.49 1.42 1.28 1.08 1.03 1.07 0.99 1.02 1.20 1.16 1.18 1.21 1.21 1.12 1.13 1.01 0.96 0.88 0.96 1.18 1.25 1.28 1.30 1.31 1.32 1.30 1.31 1.32 1.32 1.37 1.37 1.36 1.35 1.35 1.36 1.31 1.23 1.19 1.15 1.11 1.09 1.10 1.11 1.11 1.13 1.13 1.08 1.07 1.06 1.04 1.01 1.01 1.03 1.03 1.03 1.05 1.07 1.10 1.13 1.15 1.16 1.15 1.15 1.15 1.15 1.16 1.17
1.44 1.40 1.38 1.38 1.40 1.41 1.44 1.49 1.55 1.60 1.67 1.65 1.63 1.65 1.59 1.53 1.53 1.49 1.43 1.40 1.37 1.29 1.12 1.05 1.03 1.03 1.09 1.12 1.16 1.11 1.12 1.11 1.11 1.11 0.98 0.89 0.90 0.97 1.02 1.19 1.24 1.26 1.28 1.31 1.32 1.34 1.33 1.32 1.35 1.35 1.33 1.33 1.33 1.30 1.26 1.24 1.18 1.12 1.08 1.10 1.11 1.11 1.09 1.07 1.03 1.06 1.05 1.04 1.04 1.05 1.08 1.09 1.10 1.11 1.11 1.14 1.15 1.16 1.15 1.14 1.14 1.14 1.14 1.14 1.14
1.40 1.40 1.37 1.36 1.36 1.40 1.43 1.46 1.52 1.56 1.61 1.63 1.63 1.63 1.62 1.57 1.55 1.52 1.45 1.39 1.41 1.35 1.21 1.14 1.11 1.10 1.12 1.12 1.10 1.08 1.08 1.04 1.04 1.04 1.02 0.99 0.87 0.89 0.97 0.98 0.96 1.08 1.22 1.24 1.27 1.30 1.31 1.32 1.32 1.32 1.32 1.33 1.32 1.29 1.26 1.24 1.22 1.14 1.11 1.08 1.09 1.10 1.06 1.01 1.03 1.03 1.04 1.07 1.09 1.10 1.11 1.13 1.14 1.15 1.15 1.15 1.15 1.14 1.13 1.14 1.16 1.16 1.16 1.17 1.17
1.33 1.35 1.36 1.36 1.34 1.36 1.38 1.45 1.56 1.59 1.57 1.58 1.59 1.62 1.60 1.59 1.58 1.56 1.48 1.40 1.37 1.33 1.26 1.17 1.13 1.11 1.11 1.13 1.11 1.08 1.01 0.94 0.95 1.02 0.99 0.94 0.93 0.92 0.97 1.00 0.99 0.99 1.12 1.23 1.26 1.27 1.28 1.29 1.27 1.27 1.28 1.28 1.29 1.29 1.27 1.28 1.25 1.16 1.09 1.10 1.09 1.07 1.05 1.04 1.04 1.03 1.06 1.08 1.11 1.13 1.15 1.15 1.14 1.14 1.14 1.13 1.13 1.14 1.14 1.15 1.16 1.16 1.16 1.16 1.16
1.29 1.28 1.31 1.34 1.32 1.31 1.34 1.40 1.50 1.57 1.56 1.58 1.60 1.63 1.66 1.63 1.61 1.57 1.51 1.47 1.41 1.34 1.27 1.17 1.10 1.13 1.09 1.12 1.15 1.17 1.13 1.06 1.05 1.05 1.02 1.01 0.99 0.93 0.95 1.01 1.03 1.04 1.11 1.18 1.28 1.26 1.25 1.26 1.27 1.26 1.27 1.27 1.26 1.26 1.26 1.27 1.26 1.18 1.13 1.11 1.10 1.09 1.07 1.08 1.06 1.05 1.07 1.09 1.11 1.13 1.13 1.13 1.12 1.13 1.14 1.14 1.13 1.12 1.12 1.12 1.10 1.09 1.09 1.10 1.11
1.19 1.20 1.25 1.29 1.31 1.29 1.28 1.28 1.35 1.49 1.59 1.60 1.59 1.61 1.63 1.64 1.61 1.58 1.55 1.48 1.40 1.33 1.25 1.20 1.16 1.09 1.08 1.15 1.17 1.19 1.15 1.17 1.16 1.10 1.11 1.13 1.05 0.97 1.01 1.09 1.00 1.02 1.12 1.15 1.14 1.25 1.28 1.27 1.28 1.28 1.27 1.27 1.26 1.26 1.28 1.28 1.26 1.20 1.16 1.13 1.12 1.13 1.11 1.08 1.06 1.06 1.06 1.07 1.09 1.09 1.08 1.08 1.09 1.09 1.09 1.08 1.07 1.05 1.05 1.05 1.05 1.05 1.06 1.08 1.09
1.09 1.11 1.22 1.30 1.32 1.30 1.29 1.27 1.31 1.40 1.52 1.58 1.61 1.62 1.62 1.62 1.64 1.60 1.55 1.54 1.49 1.39 1.30 1.26 1.22 1.18 1.18 1.15 1.13 1.14 1.14 1.18 1.16 1.14 1.10 1.09 1.07 1.04 1.03 1.05 1.07 1.06 1.14 1.14 1.19 1.13 1.21 1.31 1.33 1.32 1.31 1.31 1.30 1.30 1.30 1.30 1.28 1.25 1.23 1.17 1.17 1.17 1.18 1.17 1.12 1.08 1.05 1.05 1.06 1.07 1.07 1.07 1.06 1.06 1.06 1.05 1.04 1.04 1.04 1.04 1.04 1.04 1.04 1.04 1.05
1.06 1.13 1.24 1.27 1.29 1.33 1.32 1.29 1.30 1.32 1.39 1.47 1.56 1.61 1.63 1.62 1.63 1.62 1.64 1.62 1.54 1.47 1.38 1.29 1.20 1.17 1.15 1.15 1.18 1.16 1.14 1.17 1.17 1.15 1.16 1.14 1.12 1.11 1.08 0.97 1.01 1.07 1.04 1.12 1.15 1.14 1.12 1.23 1.30 1.29 1.30 1.29 1.30 1.28 1.28 1.28 1.27 1.27 1.27 1.23 1.20 1.21 1.22 1.21 1.20 1.16 1.11 1.06 1.05 1.06 1.07 1.08 1.09 1.08 1.06 1.05 1.04 1.03 1.03 1.04 1.03 1.02 1.02 1.02 1.02
1.10 1.16 1.22 1.24 1.26 1.29 1.34 1.33 1.33 1.33 1.34 1.38 1.46 1.53 1.58 1.59 1.60 1.62 1.60 1.68 1.59 1.51 1.45 1.36 1.25 1.19 1.17 1.14 1.14 1.14 1.13 1.15 1.17 1.17 1.18 1.19 1.17 1.19 1.15 1.08 0.98 0.92 1.01 1.00 1.06 1.07 1.22 1.16 1.26 1.32 1.32 1.32 1.33 1.34 1.32 1.30 1.29 1.29 1.29 1.26 1.22 1.21 1.22 1.22 1.21 1.19 1.18 1.15 1.11 1.09 1.09 1.10 1.11 1.11 1.09 1.06 1.03 1.02 1.02 1.02 1.01 1.02 1.03 1.03 1.01
1.10 1.16 1.18 1.21 1.23 1.26 1.30 1.35 1.37 1.35 1.34 1.35 1.40 1.46 1.52 1.55 1.56 1.56 1.56 1.63 1.61 1.56 1.54 1.42 1.31 1.25 1.20 1.17 1.11 1.11 1.09 1.13 1.17 1.17 1.18 1.22 1.21 1.20 1.19 1.11 1.08 0.96 0.90 0.89 0.94 0.98 1.10 1.19 1.11 1.20 1.32 1.34 1.35 1.40 1.38 1.36 1.35 1.34 1.32 1.30 1.25 1.22 1.21 1.22 1.22 1.21 1.21 1.19 1.17 1.15 1.13 1.12 1.12 1.12 1.11 1.08 1.04 1.03 1.02 1.01 1.01 1.02 1.03 1.01 0.99
1.09 1.12 1.14 1.15 1.17 1.22 1.26 1.32 1.37 1.38 1.35 1.36 1.37 1.41 1.44 1.46 1.49 1.53 1.57 1.61 1.58 1.58 1.57 1.54 1.43 1.33 1.25 1.19 1.17 1.13 1.13 1.13 1.17 1.19 1.17 1.21 1.22 1.20 1.19 1.19 1.16 1.01 0.97 0.88 0.87 1.01 1.03 1.16 1.17 1.14 1.26 1.29 1.36 1.38 1.39 1.39 1.41 1.42 1.40 1.39 1.33 1.28 1.25 1.24 1.23 1.23 1.22 1.22 1.21 1.20 1.19 1.17 1.14 1.13 1.12 1.09 1.06 1.05 1.04 1.03 1.04 1.04 1.03 1.01 0.97
1.08 1.10 1.11 1.11 1.14 1.17 1.22 1.27 1.34 1.36 1.39 1.37 1.38 1.38 1.40 1.38 1.41 1.43 1.51 1.55 1.53 1.51 1.53 1.54 1.52 1.44 1.30 1.20 1.19 1.15 1.15 1.11 1.15 1.22 1.25 1.23 1.20 1.21 1.19 1.20 1.16 1.10 1.04 1.01 0.89 0.99 1.10 1.03 1.12 1.20 1.18 1.24 1.30 1.32 1.34 1.37 1.39 1.43 1.43 1.44 1.40 1.35 1.31 1.29 1.26 1.24 1.24 1.23 1.23 1.24 1.25 1.24 1.21 1.16 1.13 1.09 1.07 1.07 1.07 1.08 1.07 1.06 1.04 1.00 0.96
1.06 1.09 1.10 1.10 1.12 1.13 1.17 1.21 1.25 1.31 1.34 1.36 1.37 1.36 1.36 1.34 1.36 1.36 1.41 1.45 1.44 1.45 1.49 1.53 1.52 1.49 1.40 1.29 1.22 1.18 1.16 1.14 1.14 1.19 1.23 1.26 1.24 1.17 1.16 1.16 1.16 1.15 1.12 1.04 0.96 0.91 1.10 1.08 1.11 1.16 1.18 1.18 1.26 1.25 1.27 1.32 1.38 1.41 1.42 1.43 1.44 1.42 1.38 1.33 1.30 1.27 1.26 1.25 1.26 1.28 1.30 1.30 1.27 1.21 1.17 1.14 1.12 1.12 1.14 1.14 1.12 1.09 1.05 1.01 0.95
1.06 1.08 1.10 1.11 1.14 1.14 1.16 1.17 1.17 1.18 1.20 1.23 1.29 1.31 1.29 1.26 1.28 1.30 1.34 1.35 1.33 1.36 1.43 1.47 1.50 1.47 1.42 1.36 1.30 1.25 1.23 1.12 1.12 1.17 1.20 1.22 1.23 1.19 1.15 1.15 1.14 1.17 1.13 1.05 0.96 0.93 1.06 1.20 1.19 1.17 1.20 1.21 1.18 1.24 1.22 1.25 1.30 1.36 1.42 1.42 1.42 1.41 1.40 1.38 1.35 1.32 1.30 1.29 1.29 1.31 1.33 1.32 1.27 1.23 1.20 1.17 1.16 1.18 1.20 1.20 1.18 1.14 1.08 1.02 0.95
1.09 1.07 1.09 1.13 1.15 1.16 1.16 1.16 1.17 1.16 1.17 1.18 1.22 1.25 1.22 1.20 1.20 1.25 1.25 1.26 1.24 1.25 1.31 1.32 1.40 1.44 1.40 1.33 1.31 1.31 1.30 1.16 1.08 1.10 1.15 1.19 1.19 1.15 1.14 1.12 1.10 1.12 1.17 1.08 1.02 0.97 0.92 1.08 1.14 1.25 1.24 1.28 1.16 1.27 1.21 1.20 1.23 1.32 1.35 1.38 1.40 1.39 1.39 1.40 1.39 1.36 1.35 1.34 1.33 1.35 1.36 1.35 1.32 1.26 1.22 1.21 1.22 1.23 1.24 1.23 1.22 1.17 1.11 1.04 0.96
1.11 1.10 1.09 1.11 1.13 1.15 1.15 1.15 1.16 1.15 1.15 1.17 1.21 1.22 1.20 1.18 1.16 1.17 1.20 1.20 1.18 1.15 1.14 1.15 1.22 1.34 1.36 1.33 1.27 1.27 1.31 1.24 1.13 1.08 1.13 1.15 1.19 1.16 1.12 1.14 1.09 1.10 1.14 1.14 1.06 0.99 0.96 0.98 1.10 1.14 1.18 1.23 1.18 1.19 1.25 1.26 1.27 1.31 1.30 1.33 1.34 1.37 1.39 1.39 1.39 1.40 1.41 1.40 1.38 1.37 1.37 1.36 1.33 1.29 1.27 1.27 1.27 1.26 1.26 1.26 1.24 1.19 1.11 1.04 0.96
1.11 1.12 1.13 1.13 1.14 1.14 1.12 1.12 1.12 1.11 1.14 1.16 1.18 1.20 1.19 1.18 1.16 1.16 1.17 1.17 1.16 1.15 1.12 1.10 1.12 1.16 1.19 1.24 1.27 1.29 1.27 1.22 1.20 1.14 1.11 1.14 1.15 1.14 1.13 1.14 1.12 1.08 1.11 1.13 1.12 1.04 1.02 0.97 1.06 1.08 1.17 1.17 1.19 1.24 1.28 1.30 1.29 1.29 1.29 1.31 1.37 1.37 1.37 1.40 1.40 1.41 1.43 1.43 1.42 1.40 1.37 1.35 1.33 1.31 1.32 1.32 1.31 1.29 1.28 1.28 1.26 1.20 1.12 1.05 0.96
1.14 1.13 1.14 1.17 1.15 1.13 1.09 1.06 1.06 1.08 1.10 1.13 1.14 1.16 1.19 1.21 1.19 1.17 1.16 1.16 1.14 1.13 1.12 1.12 1.13 1.12 1.10 1.07 1.13 1.26 1.30 1.23 1.20 1.20 1.16 1.11 1.13 1.13 1.11 1.12 1.12 1.11 1.12 1.12 1.10 1.09 1.03 0.97 0.98 1.08 1.15 1.18 1.21 1.22 1.24 1.21 1.25 1.28 1.31 1.29 1.30 1.32 1.35 1.39 1.40 1.42 1.43 1.44 1.44 1.44 1.40 1.37 1.34 1.33 1.35 1.36 1.36 1.34 1.32 1.30 1.26 1.20 1.13 1.05 0.95
1.11 1.15 1.12 1.13 1.12 1.08 1.06 1.06 1.07 1.08 1.11 1.13 1.12 1.12 1.14 1.17 1.18 1.19 1.18 1.16 1.15 1.14 1.14 1.14 1.14 1.15 1.12 1.09 1.08 1.12 1.18 1.20 1.20 1.21 1.21 1.16 1.13 1.11 1.09 1.10 1.12 1.13 1.12 1.12 1.13 1.10 1.06 1.01 0.98 0.97 1.07 1.07 1.11 1.15 1.20 1.23 1.19 1.18 1.22 1.27 1.31 1.32 1.31 1.32 1.36 1.39 1.42 1.42 1.41 1.42 1.41 1.40 1.38 1.37 1.38 1.39 1.39 1.37 1.34 1.31 1.27 1.22 1.17 1.08 0.96
1.07 1.08 1.12 1.12 1.12 1.09 1.07 1.08 1.08 1.09 1.11 1.13 1.13 1.13 1.14 1.15 1.15 1.16 1.16 1.17 1.16 1.16 1.15 1.15 1.16 1.17 1.16 1.14 1.13 1.15 1.12 1.09 1.10 1.15 1.20 1.23 1.21 1.15 1.12 1.10 1.11 1.10 1.09 1.09 1.10 1.08 1.06 1.02 1.02 1.01 0.99 1.07 1.08 1.04 1.16 1.24 1.24 1.22 1.16 1.16 1.17 1.25 1.28 1.26 1.24 1.34 1.41 1.41 1.43 1.43 1.42 1.41 1.40 1.39 1.41 1.42 1.41 1.40 1.38 1.35 1.29 1.24 1.19 1.11 0.99
1.09 1.07 1.07 1.09 1.11 1.11 1.08 1.08 1.09 1.11 1.12 1.13 1.14 1.14 1.15 1.15 1.16 1.16 1.18 1.18 1.18 1.19 1.18 1.19 1.20 1.20 1.19 1.19 1.18 1.18 1.17 1.15 1.12 1.09 1.12 1.14 1.20 1.20 1.23 1.22 1.18 1.13 1.09 1.08 1.07 1.05 1.02 1.02 1.00 0.98 1.01 1.00 1.07 1.13 1.18 1.19 1.15 1.18 1.21 1.16 1.09 1.12 1.17 1.23 1.24 1.22 1.32 1.39 1.37 1.40 1.44 1.45 1.43 1.42 1.43 1.45 1.46 1.45 1.42 1.39 1.34 1.28 1.24 1.16 1.04
1.12 1.10 1.08 1.09 1.09 1.09 1.09 1.09 1.09 1.11 1.12 1.11 1.14 1.15 1.16 1.18 1.20 1.18 1.19 1.21 1.22 1.21 1.20 1.21 1.23 1.25 1.25 1.25 1.24 1.22 1.21 1.20 1.21 1.21 1.19 1.17 1.13 1.10 1.15 1.22 1.23 1.21 1.18 1.16 1.12 1.05 1.01 0.98 0.97 1.01 1.00 0.99 1.01 1.03 1.04 1.03 0.98 0.94 1.04 1.14 1.12 1.16 1.20 1.20 1.24 1.30 1.29 1.30 1.36 1.38 1.39 1.43 1.39 1.38 1.39 1.40 1.44 1.46 1.44 1.42 1.38 1.34 1.29 1.20 1.08
1.11 1.11 1.10 1.11 1.09 1.06 1.06 1.07 1.09 1.12 1.14 1.16 1.17 1.17 1.21 1.22 1.23 1.24 1.27 1.28 1.30 1.29 1.28 1.27 1.28 1.30 1.30 1.31 1.31 1.30 1.28 1.26 1.25 1.25 1.25 1.25 1.24 1.19 1.13 1.13 1.12 1.14 1.15 1.17 1.17 1.13 1.06 0.98 0.93 0.93 0.91 0.90 0.94 0.99 0.99 1.01 1.04 1.06 1.05 1.06 1.02 1.08 1.17 1.18 1.21 1.25 1.33 1.31 1.29 1.30 1.37 1.45 1.42 1.38 1.40 1.38 1.44 1.48 1.45 1.43 1.39 1.37 1.31 1.21 1.08
1.10 1.10 1.11 1.09 1.07 1.06 1.05 1.05 1.08 1.12 1.16 1.19 1.19 1.20 1.22 1.26 1.30 1.32 1.31 1.31 1.36 1.38 1.39 1.38 1.35 1.36 1.39 1.41 1.41 1.40 1.39 1.36 1.32 1.28 1.26 1.26 1.26 1.26 1.26 1.24 1.20 1.13 1.07 1.07 1.09 1.13 1.11 1.07 1.05 1.02 0.94 0.88 0.90 0.96 0.99 1.01 1.07 1.06 1.02 1.02 1.00 1.02 1.01 1.00 0.98 1.14 1.34 1.30 1.25 1.23 1.29 1.45 1.46 1.36 1.37 1.40 1.44 1.47 1.49 1.43 1.40 1.38 1.32 1.20 1.06
1.12 1.12 1.10 1.07 1.06 1.06 1.07 1.09 1.10 1.12 1.15 1.17 1.21 1.23 1.25 1.28 1.33 1.37 1.41 1.42 1.44 1.45 1.46 1.46 1.47 1.48 1.47 1.49 1.52 1.54 1.52 1.48 1.45 1.41 1.36 1.32 1.30 1.29 1.28 1.28 1.27 1.25 1.23 1.14 1.06 1.05 1.07 1.05 1.04 1.05 1.04 0.98 0.94 0.96 0.96 1.00 1.02 1.08 1.09 1.07 1.03 0.98 0.97 0.97 0.99 0.98 1.17 1.31 1.21 1.17 1.17 1.38 1.49 1.42 1.37 1.40 1.46 1.50 1.50 1.45 1.42 1.38 1.30 1.14 1.00
1.15 1.13 1.09 1.07 1.05 1.06 1.09 1.08 1.09 1.13 1.15 1.17 1.19 1.22 1.26 1.30 1.36 1.43 1.48 1.53 1.55 1.57 1.61 1.63 1.63 1.62 1.62 1.62 1.63 1.66 1.66 1.65 1.63 1.60 1.55 1.49 1.45 1.40 1.37 1.36 1.36 1.34 1.30 1.26 1.25 1.18 1.14 1.09 1.04 1.03 1.06 1.06 1.03 1.01 1.02 0.99 1.03 1.01 1.05 1.06 1.07 1.07 1.06 1.01 0.99 1.01 1.13 1.31 1.24 1.17 1.13 1.26 1.41 1.40 1.37 1.42 1.47 1.51 1.50 1.47 1.42 1.37 1.25 1.07 0.95
1.15 1.13 1.13 1.09 1.07 1.07 1.09 1.09 1.10 1.13 1.15 1.17 1.20 1.23 1.28 1.34 1.40 1.48 1.53 1.58 1.61 1.63 1.66 1.68 1.69 1.69 1.69 1.68 1.67 1.67 1.72 1.74 1.74 1.72 1.70 1.66 1.64 1.61 1.56 1.52 1.47 1.44 1.40 1.35 1.32 1.32 1.30 1.22 1.14 1.05 1.08 1.14 1.05 1.05 1.12 1.16 1.10 1.03 1.03 1.02 1.08 1.09 1.10 1.07 1.06 1.08 1.19 1.36 1.23 1.19 1.16 1.24 1.37 1.40 1.38 1.42 1.48 1.50 1.49 1.46 1.44 1.38 1.24 1.08 0.96
1.16 1.14 1.13 1.11 1.08 1.09 1.12 1.14 1.14 1.13 1.15 1.19 1.24 1.28 1.33 1.38 1.44 1.52 1.58 1.63 1.65 1.66 1.69 1.71 1.72 1.72 1.73 1.74 1.72 1.69 1.71 1.72 1.75 1.76 1.74 1.72 1.70 1.66 1.63 1.60 1.62 1.61 1.59 1.53 1.47 1.45 1.41 1.38 1.31 1.24 1.20 1.23 1.20 1.18 1.21 1.26 1.24 1.21 1.19 1.13 1.13 1.13 1.17 1.21 1.23 1.27 1.28 1.38 1.36 1.29 1.08 1.21 1.40 1.37 1.40 1.47 1.49 1.46 1.49 1.47 1.46 1.40 1.26 1.12 1.01
1.32 1.26 1.25 1.24 1.16 1.14 1.18 1.21 1.20 1.16 1.19 1.27 1.31 1.34 1.38 1.43 1.50 1.57 1.62 1.64 1.64 1.67 1.69 1.73 1.75 1.77 1.78 1.78 1.75 1.74 1.73 1.73 1.76 1.79 1.79 1.80 1.74 1.67 1.62 1.61 1.62 1.63 1.61 1.66 1.74 1.77 1.72 1.63 1.54 1.44 1.38 1.37 1.35 1.33 1.33 1.33 1.33 1.34 1.36 1.37 1.36 1.31 1.23 1.16 1.10 1.18 1.21 1.36 1.41 1.31 1.20 1.20 1.37 1.34 1.39 1.54 1.54 1.45 1.47 1.47 1.46 1.38 1.27 1.18 1.07
1.42 1.32 1.24 1.25 1.26 1.23 1.23 1.26 1.25 1.21 1.24 1.32 1.36 1.40 1.45 1.52 1.58 1.61 1.64 1.65 1.66 1.66 1.69 1.74 1.77 1.79 1.81 1.82 1.82 1.79 1.78 1.76 1.81 1.84 1.84 1.83 1.74 1.67 1.64 1.63 1.63 1.61 1.55 1.66 1.79 1.81 1.81 1.82 1.80 1.77 1.73 1.68 1.61 1.55 1.52 1.49 1.44 1.43 1.40 1.32 1.26 1.32 1.21 1.08 1.07 1.10 1.11 1.25 1.35 1.37 1.28 1.20 1.31 1.35 1.37 1.49 1.51 1.46 1.44 1.44 1.42 1.34 1.29 1.21 1.10
1.53 1.47 1.37 1.30 1.34 1.35 1.31 1.29 1.31 1.28 1.30 1.39 1.43 1.47 1.52 1.57 1.61 1.61 1.63 1.63 1.62 1.64 1.68 1.75 1.79 1.81 1.83 1.85 1.86 1.83 1.78 1.78 1.84 1.85 1.85 1.85 1.75 1.71 1.69 1.64 1.59 1.53 1.51 1.68 1.79 1.80 1.83 1.84 1.83 1.82 1.83 1.85 1.84 1.79 1.72 1.67 1.63 1.61 1.48 1.27 1.29 1.36 1.23 1.20 1.10 1.11 1.13 1.20 1.25 1.41 1.30 1.22 1.31 1.36 1.34 1.42 1.48 1.47 1.44 1.42 1.35 1.29 1.27 1.23 1.14
1.63 1.62 1.59 1.45 1.37 1.37 1.38 1.37 1.38 1.37 1.38 1.44 1.49 1.52 1.56 1.61 1.63 1.65 1.66 1.64 1.61 1.63 1.68 1.71 1.80 1.83 1.85 1.87 1.85 1.83 1.81 1.82 1.86 1.86 1.87 1.86 1.79 1.75 1.74 1.69 1.55 1.47 1.49 1.75 1.73 1.72 1.76 1.75 1.74 1.79 1.79 1.83 1.86 1.85 1.83 1.81 1.77 1.72 1.64 1.52 1.50 1.41 1.28 1.25 1.23 1.21 1.12 1.10 1.26 1.41 1.22 1.20 1.24 1.30 1.34 1.29 1.24 1.38 1.46 1.40 1.31 1.24 1.24 1.23 1.16
Wind_Speed
8 8 7 7 7 7 7 6 7 6 6 6 6 6 6 6 6 6 6 6 5 4 5 5 5 5 5 4 5 5 6 6 7 7 7 8 8 8 8 8 8 8 8 8 7 7 7 7 7 7 7 7 7 7 7 7 7 7 7 6 6 5 5 5 5 5 5 4 5 5 5 5 5 6 6 7 7 7 7 8 8 8 9 9 10
8 8 7 7 7 7 7 6 7 7 7 6 6 6 6 6 6 6 6 5 5 4 4 5 5 5 5 5 5 6 6 6 7 7 7 7 7 8 8 8 7 7 7 7 7 7 7 7 7 7 7 7 7 7 7 7 7 7 7 6 6 6 5 5 5 4 4 4 4 4 5 5 5 6 6 6 7 7 7 8 8 9 9 9 10
8 8 7 7 7 7 7 7 7 7 7 6 6 6 6 6 6 6 5 5 5 4 5 5 5 5 6 6 5 6 6 6 7 7 7 7 7 7 7 7 7 7 7 7 7 7 7 7 7 6 6 6 7 7 7 7 7 7 7 7 6 6 6 5 5 4 4 4 4 4 4 5 5 5 6 6 7 7 7 8 8 9 9 9 10
8 8 8 7 7 7 7 7 7 6 7 7 6 6 6 6 6 6 6 6 6 5 5 5 5 5 6 6 5 5 6 6 7 7 7 7 7 7 7 7 6 6 6 6 7 7 7 6 6 6 6 6 7 7 7 7 7 7 6 6 6 6 5 5 5 5 4 4 4 4 4 4 5 5 6 6 7 7 8 8 9 9 9 10 10
8 8 8 8 7 7 7 7 7 7 7 7 7 7 7 7 7 7 6 6 6 6 6 6 5 5 6 6 6 6 6 7 7 7 7 7 7 7 7 7 6 6 6 6 6 6 6 6 6 6 6 6 6 6 6 6 6 6 5 5 5 5 5 5 4 4 4 4 4 4 4 4 5 5 6 6 7 7 8 8 9 9 10 10 10
8 8 8 8 7 7 7 7 8 8 8 8 8 8 8 8 7 7 7 7 7 6 7 6 6 6 6 6 6 6 6 7 7 7 7 7 7 7 7 7 7 7 7 6 6 6 6 6 6 6 6 6 6 5 5 5 5 4 4 4 4 4 4 4 4 4 4 4 4 4 4 5 5 5 6 6 7 8 8 9 9 10 10 10 11
9 9 9 8 8 7 7 8 8 8 9 9 9 9 8 8 8 8 8 8 7 7 6 6 6 7 7 7 7 6 7 7 7 7 7 7 7 7 7 7 7 7 7 6 6 6 6 5 5 5 5 5 5 4 4 4 4 4 4 3 3 3 3 3 3 4 4 4 4 4 4 5 5 6 6 7 8 8 9 9 10 10 11 11 12
9 9 9 8 8 8 8 8 9 9 9 9 9 9 9 9 9 9 9 9 8 7 7 7 7 7 7 7 7 7 7 7 7 7 7 7 7 7 7 7 7 7 7 6 6 6 6 5 5 5 4 4 4 4 3 3 3 3 3 3 3 3 3 3 3 3 3 3 4 4 4 5 5 6 7 7 8 9 9 10 11 11 12 12 12
9 9 8 8 8 8 8 9 9 8 9 9 9 9 9 9 9 9 9 9 9 8 8 8 8 8 8 8 8 8 8 8 8 8 8 8 8 8 8 8 7 7 7 7 6 6 6 5 5 4 4 3 3 3 3 3 2 2 2 2 2 2 2 2 2 3 3 3 3 4 5 5 6 7 7 8 8 9 10 10 11 11 12 12 12
9 9 8 8 8 8 8 8 8 8 8 8 9 9 9 9 9 9 9 9 9 9 9 9 9 9 9 9 9 8 8 9 9 8 9 8 8 8 8 8 7 7 7 7 6 6 5 5 4 4 3 3 3 3 2 2 2 2 2 1 1 1 2 2 2 2 3 3 4 4 5 6 7 7 8 8 9 10 10 11 11 12 12 12 13
10 9 9 8 8 8 8 8 8 8 8 8 8 8 9 9 9 9 9 10 10 9 9 9 9 9 9 9 9 9 8 9 9 9 9 8 8 8 8 8 7 6 6 6 6 5 5 4 3 3 2 2 2 2 2 2 2 2 1 1 1 1 1 2 2 3 3 4 4 5 6 6 7 8 9 9 10 10 11 11 11 12 12 13 13
10 9 9 8 8 7 7 8 8 7 7 7 7 8 8 8 9 9 9 10 10 10 9 9 9 9 9 9 9 8 8 9 9 9 8 8 8 8 8 8 7 6 5 5 5 5 4 3 3 2 2 2 2 2 2 2 2 2 2 2 2 2 2 3 3 4 4 5 5 6 6 7 8 8 9 9 10 10 10 11 11 12 12 13 13
10 10 9 9 8 7 7 7 7 7 7 7 7 7 7 8 8 9 9 9 10 10 10 9 9 9 10 10 9 8 8 8 8 8 8 8 8 8 8 8 7 6 6 5 5 4 4 3 3 2 2 2 2 2 2 1 1 2 2 2 2 3 3 4 4 5 5 6 6 6 7 7 8 8 8 9 9 9 10 10 11 11 12 12 13
10 10 10 9 8 7 7 7 6 6 6 6 6 6 7 7 8 8 9 9 9 10 10 9 9 9 9 10 10 9 8 7 7 7 7 8 8 8 8 7 6 7 7 6 5 5 4 4 4 3 3 2 2 2 1 1 1 2 2 2 3 3 4 4 5 5 5 6 6 6 7 7 7 8 8 8 8 9 9 10 11 11 12 13 13
10 10 10 9 8 7 7 6 6 6 6 6 6 6 6 7 7 8 8 9 9 10 9 9 9 9 9 9 9 9 8 7 6 7 7 8 8 8 8 7 7 8 8 7 6 6 5 5 4 4 4 3 3 2 2 2 2 2 3 3 3 3 4 4 4 5 5 5 6 6 6 6 6 7 7 7 8 8 9 10 11 11 12 13 14
11 10 10 9 9 8 7 6 6 5 5 5 5 6 6 6 6 7 8 8 9 9 9 9 9 9 9 8 8 9 9 7 7 7 7 7 7 7 7 7 7 7 7 7 6 6 6 5 5 4 4 4 3 3 3 3 3 3 3 3 4 4 4 4 4 4 4 5 5 5 5 5 5 6 6 7 8 8 9 10 11 12 13 14 14
11 10 10 10 9 8 7 7 6 5 5 5 5 5 5 5 6 6 6 7 8 8 8 9 9 8 9 9 9 9 8 7 7 7 7 7 6 6 6 6 6 6 6 6 6 6 6 5 5 4 4 4 4 3 3 3 3 3 4 4 4 4 4 4 4 4 5 5 5 5 4 5 5 6 6 7 8 8 9 10 11 12 13 14 15
11 10 10 10 9 8 8 7 6 5 5 5 5 5 5 5 5 6 6 6 7 7 7 7 8 8 8 9 9 9 8 8 8 8 7 7 6 6 6 6 6 6 6 6 5 6 6 6 5 5 5 4 4 4 3 3 3 3 4 4 4 4 4 4 5 5 5 5 5 5 4 5 5 6 6 7 8 9 10 11 12 13 14 15 16
11 10 10 10 9 9 8 7 6 5 5 5 5 4 4 4 5 5 5 6 6 6 6 6 7 7 7 8 8 8 8 8 8 8 8 7 6 6 5 5 5 5 5 5 5 5 5 5 5 5 4 4 4 3 3 3 3 3 4 4 4 4 4 4 5 5 5 5 5 5 5 5 6 6 7 8 9 10 11 11 12 14 15 16 17
11 11 10 10 9 9 8 7 6 6 5 5 4 4 4 4 4 5 5 5 5 5 5 5 5 6 6 7 7 8 8 7 7 8 8 8 7 6 5 5 5 4 4 5 4 4 4 4 5 4 4 3 3 3 3 3 3 3 3 3 3 4 4 4 4 5 5 6 6 6 6 6 6 7 8 8 9 10 11 12 13 14 15 16 17
12 11 10 10 10 9 9 8 7 6 6 5 4 4 4 4 4 5 4 4 4 4 4 4 4 5 5 5 6 7 7 6 6 7 7 7 7 6 5 5 4 3 3 3 3 3 3 3 3 3 3 2 2 2 2 2 2 2 2 3 3 4 4 4 4 5 6 6 6 6 6 6 7 7 8 9 10 11 12 13 14 15 16 17 18
12 11 11 11 10 10 9 8 8 7 6 6 5 5 5 4 4 4 4 4 3 3 3 3 3 4 4 4 5 5 6 6 5 6 6 6 6 5 5 5 4 3 3 3 2 2 1 2 2 2 1 1 1 1 1 2 2 2 3 3 3 4 4 5 5 5 6 6 6 6 6 7 7 8 8 9 10 12 13 14 15 16 17 18 19
13 12 11 11 11 10 10 9 8 8 7 6 6 5 5 5 5 5 4 4 3 3 2 2 3 3 3 4 4 4 5 5 5 5 5 5 5 4 4 4 3 2 2 2 2 1 1 0 1 1 2 2 2 2 2 3 3 3 4 4 4 5 5 6 6 6 6 6 7 7 7 7 8 8 9 10 11 12 13 14 16 17 18 19 20
14 13 12 12 11 11 11 10 9 9 8 7 6 6 6 5 5 5 5 5 4 3 2 2 2 2 2 3 3 3 3 4 4 4 4 3 4 4 3 3 3 2 1 1 1 0 0 1 2 2 2 3 3 3 3 4 4 4 5 5 5 6 6 7 7 7 7 7 7 8 8 8 9 9 10 11 12 13 14 15 16 17 18 19 20
15 14 13 12 12 11 11 11 10 9 9 8 7 7 6 6 6 6 6 5 5 4 4 3 2 2 2 3 3 2 2 2 2 3 3 3 3 3 3 3 3 2 2 1 1 0 1 1 2 2 3 3 4 4 4 4 4 5 5 5 6 6 7 7 8 8 7 8 8 8 8 9 10 10 11 12 13 14 15 16 17 17 18 19 20
15 15 14 13 12 12 12 11 11 10 10 9 8 8 7 7 7 7 7 6 6 5 5 4 3 3 3 3 2 2 1 1 1 1 2 2 2 2 3 3 3 3 2 1 1 1 1 2 2 3 3 4 4 4 4 4 5 5 5 6 6 6 7 7 8 8 8 8 9 9 9 10 10 11 12 13 14 14 15 16 17 18 18 19 20
15 15 14 14 13 13 13 12 12 11 11 10 10 9 8 8 7 7 7 7 7 6 6 5 5 4 4 3 3 3 2 2 2 1 1 1 1 1 2 2 3 3 2 1 1 1 2 2 3 3 3 4 4 4 5 5 5 5 6 6 6 7 7 7 8 8 8 9 9 10 10 11 11 12 13 14 14 15 16 16 17 18 19 20 21
16 15 15 14 14 14 13 13 13 12 12 11 10 10 10 9 8 8 8 8 8 7 7 6 6 6 5 4 4 4 3 3 3 3 2 1 0 0 0 1 1 2 2 1 2 2 3 3 3 4 4 4 4 5 5 5 6 6 6 7 7 7 8 8 8 8 9 9 10 11 11 11 12 13 13 14 15 15 16 17 18 19 20 20 21
16 16 15 15 15 14 14 14 13 13 12 12 11 11 10 10 10 9 9 9 9 8 8 7 7 7 6 6 5 5 4 4 4 4 4 3 2 1 2 2 2 2 2 2 3 3 3 3 4 4 4 5 5 5 6 6 7 7 7 8 8 8 8 9 9 9 9 10 10 11 11 12 12 13 14 15 15 16 17 18 18 19 20 21 22
17 16 16 15 15 15 14 14 14 13 13 12 12 11 11 11 11 10 10 10 10 10 9 9 8 8 7 7 7 6 6 6 5 5 5 5 4 4 4 4 3 3 3 3 4 4 4 4 4 5 5 5 6 6 6 7 7 7 8 8 9 9 9 9 9 10 10 10 11 11 12 12 13 14 14 15 16 17 17 18 19 20 20 21 22
18 17 16 15 15 15 15 14 14 13 13 13 13 12 12 12 11 11 11 10 11 11 10 10 9 9 9 8 8 8 7 7 7 7 6 6 6 6 6 5 5 5 4 4 5 6 5 5 5 6 6 6 6 7 7 8 8 8 8 9 9 10 10 10 10 10 10 11 11 11 12 13 13 14 15 15 16 17 18 18 19 20 21 21 22
18 18 17 16 15 15 15 14 14 14 14 14 13 13 13 12 12 12 12 11 11 11 11 11 11 10 10 10 10 9 9 9 9 8 8 8 8 8 7 7 7 6 6 5 6 7 7 6 7 7 7 7 7 8 8 9 9 9 9 10 10 10 10 10 10 11 11 11 11 12 12 13 14 14 15 16 17 17 18 19 20 20 21 21 22
19 18 18 17 16 15 15 15 14 14 14 14 13 13 13 12 12 12 12 12 12 12 12 12 12 12 12 12 12 11 11 11 11 11 10 9 9 9 9 9 9 8 8 7 8 8 8 8 8 8 7 8 8 9 9 9 9 9 10 10 11 11 11 11 11 11 12 12 12 12 13 13 14 15 16 17 17 18 18 19 20 21 21 21 21
20 19 18 17 17 16 16 15 15 14 14 14 13 13 13 13 12 12 12 12 12 12 12 13 13 13 13 13 13 13 12 12 13 13 12 11 11 10 10 10 11 10 10 10 9 9 10 10 9 9 9 9 10 10 10 10 10 10 11 11 11 12 12 12 12 12 12 13 13 13 13 14 15 16 17 17 18 18 19 19 20 21 21 21 22
20 20 19 18 17 17 16 16 16 15 15 14 14 14 13 13 13 12 12 12 12 12 12 13 13 13 14 14 14 14 14 14 14 14 14 14 13 13 12 12 12 12 12 12 11 11 11 11 11 11 11 11 11 12 12 11 11 12 12 12 13 13 13 13 13 13 14 14 14 14 15 15 16 17 18 18 18 19 19 20 20 21 21 21 22
21 20 20 19 18 18 17 17 16 16 15 15 14 14 14 14 14 14 13 13 13 13 13 13 13 14 14 15 15 15 15 15 15 15 15 15 15 15 14 14 14 14 14 14 14 13 13 13 13 13 13 13 13 13 13 13 13 13 13 14 14 14 14 15 14 15 15 15 15 16 16 17 18 18 19 19 19 19 20 20 21 21 22 22 23
21 20 20 20 19 19 18 17 17 16 16 15 15 15 15 15 15 15 15 15 14 14 14 14 14 14 14 15 15 15 16 16 16 16 16 16 17 17 17 16 16 16 16 16 16 16 16 15 15 15 15 15 15 15 14 14 15 15 15 15 15 16 16 16 16 16 16 16 16 17 18 18 19 19 20 20 20 20 20 21 21 22 22 23 23
22 21 21 20 20 19 19 18 18 17 17 16 16 16 16 15 15 15 15 15 15 15 15 15 14 14 15 15 15 15 16 16 17 17 17 17 18 18 18 18 18 18 18 18 18 18 18 18 18 17 17 17 17 17 16 16 16 17 17 17 17 17 17 17 18 18 18 18 18 18 19 19 20 20 21 21 21 21 21 21 22 22 22 23 23
22 22 21 21 20 20 19 19 19 18 18 17 17 16 16 16 15 15 15 15 15 15 15 15 15 15 15 15 15 15 15 16 16 16 17 17 18 19 19 19 19 19 20 20 20 20 20 20 20 19 19 19 19 19 19 18 18 18 18 19 19 19 19 19 19 19 19 19 19 19 20 20 20 21 21 21 21 21 21 22 22 22 22 23 23
23 23 22 21 21 21 20 20 19 19 18 18 17 17 16 16 16 15 15 15 15 15 15 15 15 15 15 15 15 15 15 16 16 16 16 17 17 18 19 19 20 20 21 21 21 22 22 22 22 22 21 21 21 21 20 20 20 20 20 20 21 21 20 21 21 21 21 21 21 21 21 21 21 22 22 22 22 22 22 22 22 22 22 22 23
24 23 23 22 22 21 21 21 20 19 19 18 18 17 17 16 16 16 15 15 15 15 15 16 16 16 16 16 16 16 17 17 17 17 17 17 18 18 18 19 20 20 21 21 22 22 23 23 23 23 23 23 23 22 22 22 22 22 22 22 22 22 22 22 23 23 22 22 22 22 22 22 22 22 22 22 22 22 22 22 22 23 22 23 23
24 24 23 23 23 22 22 21 20 20 19 19 19 19 18 17 17 16 16 16 16 16 16 16 16 16 16 17 17 17 18 18 19 19 19 19 19 19 19 20 20 21 21 22 22 23 23 24 24 24 24 25 25 24 24 24 24 24 24 24 24 24 24 24 24 24 24 24 24 24 24 23 23 23 23 23 23 22 22 22 23 23 23 23 23
25 25 24 24 23 23 22 22 21 20 20 20 20 20 19 19 18 17 17 17 17 17 17 17 17 17 17 17 18 18 18 19 19 20 20 21 21 21 21 21 22 22 22 22 23 23 24 24 25 25 26 26 26 26 26 26 26 26 26 26 26 26 25 25 25 25 25 25 25 25 25 24 24 24 23 23 23 23 23 23 23 23 24 24 24
25 25 25 25 24 23 23 22 22 21 21 21 21 20 20 20 20 19 18 18 17 18 18 18 18 18 18 18 18 18 19 19 20 20 21 22 22 23 23 24 24 24 24 24 24 25 25 25 26 26 26 27 27 27 28 28 27 28 28 28 28 28 27 27 27 27 26 26 26 26 26 25 24 24 24 24 24 23 23 23 23 24 24 24 24
26 26 26 25 25 24 24 23 23 22 22 22 21 21 21 21 21 20 19 19 19 19 19 19 19 18 19 19 19 19 19 20 20 21 21 22 23 24 25 25 26 26 27 27 27 27 27 27 27 27 27 28 28 28 28 29 29 29 29 29 29 29 30 30 30 29 28 28 27 27 26 26 26 25 26 25 24 24 24 23 24 24 25 24 23
27 26 26 26 26 25 25 24 24 23 23 22 22 22 22 21 21 21 21 20 20 20 20 20 20 20 20 20 20 20 21 21 21 22 22 23 23 24 25 26 27 27 28 29 29 30 29 29 29 29 29 29 30 30 30 30 30 30 31 31 31 31 32 32 32 31 30 29 28 28 27 27 27 27 27 26 25 25 25 24 24 24 24 24 24
27 27 27 27 26 27 26 26 25 24 24 23 23 23 23 23 22 22 22 22 21 21 21 21 21 21 21 21 22 22 22 23 23 23 24 24 25 25 26 26 27 28 29 30 30 31 31 31 31 31 31 31 31 31 31 31 32 32 33 33 33 33 33 33 33 32 31 30 29 29 29 28 28 28 28 27 27 26 25 25 24 24 24 24 24
27 27 27 27 27 27 27 27 26 26 25 25 24 24 24 24 23 23 23 23 22 22 22 22 22 22 22 23 23 24 24 24 25 25 26 26 26 27 27 28 28 29 30 31 32 32 33 33 33 33 33 33 34 33 33 33 33 33 34 34 34 34 34 34 34 33 32 31 31 31 31 30 29 29 29 29 28 27 26 26 25 24 24 24 23
27 28 28 27 27 28 28 28 27 27 27 26 25 25 25 24 24 23 24 24 23 23 23 23 23 23 23 24 24 25 25 26 26 27 27 28 28 29 29 29 30 31 32 32 33 33 34 35 35 35 36 36 36 36 36 36 35 35 35 35 35 34 35 35 35 34 34 33 32 33 33 31 30 30 30 29 29 28 27 26 26 25 25 24 23
28 28 28 28 28 28 28 28 28 28 28 27 26 26 25 25 25 25 25 24 24 24 24 24 24 24 24 25 25 25 26 26 27 28 28 29 30 30 31 31 31 33 33 33 33 34 35 36 37 37 38 38 38 38 37 38 38 37 37 37 37 36 37 36 36 36 35 35 34 33 34 33 31 30 30 29 29 29 28 27 27 26 25 24 23
28 28 28 28 28 28 28 28 29 29 28 27 27 26 26 26 26 25 25 25 25 25 25 25 25 25 26 26 26 27 27 28 28 29 29 30 31 31 32 32 33 34 34 34 34 35 35 36 37 38 38 39 39 39 39 39 40 40 40 41 40 39 39 38 37 37 36 35 35 34 35 34 32 31 31 30 29 29 28 27 27 27 26 24 23
Wind_Direction
128 125 122 117 112 111 110 107 104 103 101 98 97 94 90 87 84 83 82 85 88 89 93 97 97 95 91 94 102 104 104 106 104 101 100 103 108 111 113 113 113 111 112 112 112 111 109 108 106 103 100 97 96 94 93 93 93 93 92 91 88 87 86 85 84 80 75 68 60 53 47 43 39 33 30 27 25 22 19 17 15 13 11 8 6
130 128 125 117 112 110 110 108 103 101 101 98 96 93 91 89 86 84 82 82 83 86 89 92 92 88 88 94 100 105 108 108 107 106 105 106 109 111 113 113 114 114 115 115 114 114 111 110 108 105 104 100 98 96 95 93 92 91 89 87 85 84 84 82 81 76 70 63 53 47 41 37 32 27 25 23 21 18 16 14 12 10 7 5 3
133 128 125 118 114 112 110 108 102 100 98 96 95 92 92 89 84 84 84 82 81 83 85 88 90 85 85 92 100 105 111 114 113 113 109 108 110 110 111 112 114 116 118 120 119 117 114 111 110 106 105 103 101 99 96 94 92 90 88 85 83 82 81 78 75 71 66 59 51 46 41 35 29 25 23 21 18 15 12 10 9 7 5 4 2
136 129 124 120 116 112 109 105 100 97 95 95 94 91 92 89 84 84 83 82 80 81 85 88 91 89 83 88 100 103 112 120 119 117 112 110 111 110 111 112 115 117 119 121 121 120 117 112 110 107 106 107 106 103 99 96 92 90 87 85 83 80 78 75 71 68 64 57 51 47 40 32 27 23 20 17 13 11 9 8 7 5 3 2 0
137 130 125 121 118 113 108 104 100 97 95 95 93 89 88 86 85 84 82 82 82 82 84 85 88 87 79 85 97 98 109 121 121 118 113 110 111 110 111 112 114 118 120 120 121 121 118 114 109 108 108 108 108 106 102 98 94 90 87 84 82 79 76 72 68 64 60 54 47 41 34 28 24 20 16 14 11 9 6 4 2 0 358 356 355
138 132 127 123 120 113 105 103 100 98 95 93 92 89 86 84 84 83 81 81 82 82 81 81 82 78 72 79 90 92 105 119 121 116 111 108 110 109 109 110 112 117 120 120 120 121 121 118 113 111 111 108 108 107 103 99 96 92 87 84 82 80 76 70 66 61 55 48 41 34 29 23 20 16 13 10 6 3 359 357 355 353 352 350 350
142 135 130 126 121 112 105 104 102 99 96 94 92 90 88 85 84 84 83 82 82 80 78 80 80 73 67 73 84 89 102 117 120 114 107 108 110 109 107 108 111 115 119 121 121 122 123 123 119 115 112 109 108 107 103 99 96 92 87 85 81 79 74 66 59 54 47 41 34 27 22 17 12 8 4 1 358 356 354 353 351 349 348 347 345
147 139 133 129 122 114 110 109 106 101 98 96 94 90 87 85 84 85 85 84 83 78 75 79 79 72 65 70 82 91 102 112 113 108 106 109 109 108 108 108 111 114 118 121 121 122 123 125 122 118 115 112 113 112 108 102 97 94 89 83 77 73 68 58 49 42 34 27 21 15 10 6 2 358 356 353 351 351 350 349 348 346 345 344 343
151 145 138 132 126 119 116 114 110 105 101 98 94 90 87 85 85 86 86 84 81 75 73 76 77 72 66 72 85 93 100 103 103 104 108 111 109 107 105 106 109 111 115 119 119 119 121 124 124 122 121 119 119 119 115 105 97 93 88 80 68 63 60 50 40 30 19 12 8 3 358 355 353 351 349 348 347 347 346 346 345 344 343 342 341
153 150 144 137 132 127 121 118 115 109 104 98 94 91 87 87 86 85 85 83 79 75 75 76 76 73 70 77 90 97 96 94 98 105 110 110 108 105 100 101 105 106 110 114 115 115 117 121 122 121 119 118 118 116 114 103 91 84 75 67 54 47 44 30 19 10 360 354 352 349 347 346 346 346 345 345 344 344 343 343 343 342 341 341 340
156 154 150 144 138 133 127 122 118 112 107 101 95 92 88 87 86 84 83 82 78 78 80 79 76 75 75 83 93 96 93 91 96 104 108 107 105 102 97 97 100 101 104 108 111 112 113 113 114 115 111 109 111 107 106 94 78 69 52 38 23 11 7 2 356 352 347 343 342 341 340 341 342 341 341 341 340 340 340 341 341 341 340 339 339
161 158 156 151 144 139 134 127 122 115 110 105 98 94 91 88 86 83 81 79 75 77 82 83 80 77 79 88 96 97 92 93 99 102 105 106 105 103 97 96 96 94 99 105 107 108 110 106 102 105 104 105 107 104 103 90 68 56 37 16 3 354 349 350 349 348 344 340 338 336 336 337 338 337 338 338 339 339 340 340 341 341 341 340 339
167 163 160 156 150 146 140 133 128 121 113 108 103 100 96 89 83 80 79 79 75 75 81 83 82 81 81 84 92 99 97 100 106 105 106 109 107 102 97 96 93 88 94 102 105 104 104 102 95 95 100 106 108 103 98 82 56 37 16 1 354 347 343 342 341 341 337 333 333 334 334 335 336 337 339 341 341 342 343 344 345 345 345 345 344
170 167 165 161 156 153 148 140 134 128 119 112 108 105 100 91 84 80 79 80 76 75 79 79 79 83 83 80 83 91 96 103 114 113 111 111 107 102 100 99 91 86 90 94 100 103 104 103 97 93 97 104 110 104 86 61 33 18 6 358 351 341 336 335 334 333 330 330 332 333 335 336 338 340 342 344 346 347 348 349 350 350 350 349 348
171 169 169 166 163 160 155 149 141 135 129 121 114 110 104 95 89 85 81 80 76 75 75 74 78 81 80 79 81 86 89 95 110 117 116 114 108 106 106 101 91 88 89 88 94 101 102 103 101 97 97 98 101 94 77 56 36 26 17 9 2 353 346 342 338 337 335 336 337 337 339 340 342 344 346 348 350 351 352 353 353 353 352 351 349
173 172 172 172 170 166 161 157 150 143 137 132 124 117 110 100 94 90 86 82 77 76 71 70 79 81 77 78 78 83 86 89 102 109 113 118 115 112 111 102 92 90 89 86 91 98 99 100 99 99 100 97 95 88 77 63 48 36 27 20 17 14 9 4 358 354 350 348 347 346 346 347 348 350 351 352 353 353 354 354 353 352 351 350 349
177 176 176 176 175 173 169 164 159 152 146 142 135 125 118 108 101 96 92 86 81 80 73 70 78 79 78 80 76 79 85 89 96 98 103 117 124 119 114 105 94 91 91 88 90 97 99 97 94 95 95 92 88 82 71 60 49 40 34 29 27 25 23 20 15 10 7 4 1 359 357 357 356 355 355 355 354 354 354 353 352 351 349 349 348
180 181 180 179 179 179 176 173 169 163 155 149 143 136 131 122 113 105 98 94 87 84 81 75 76 76 78 80 78 79 85 89 91 88 90 103 121 124 117 107 99 93 93 90 88 93 96 93 87 87 88 86 82 75 65 53 43 38 35 31 29 28 25 24 23 19 17 13 10 7 5 1 358 356 355 353 353 353 352 351 350 348 347 346 345
185 185 185 184 184 184 184 182 177 172 165 159 155 149 143 136 125 115 107 104 98 94 91 82 79 79 77 77 75 77 86 91 91 90 88 91 106 119 118 111 105 98 95 93 89 89 90 89 84 81 83 82 77 72 67 57 42 35 32 27 25 23 22 24 23 19 16 13 10 8 4 360 356 353 352 351 351 350 348 347 346 345 344 343 342
190 190 190 189 189 189 190 190 186 181 177 172 168 161 156 151 140 131 124 117 107 101 98 90 87 87 80 75 71 72 82 92 94 94 94 95 101 107 110 112 110 102 98 94 91 88 86 88 86 83 83 82 79 72 69 63 45 34 27 21 19 17 17 19 16 11 8 6 3 0 357 354 352 350 348 348 346 345 344 343 342 341 340 340 340
196 195 194 193 193 193 194 195 194 191 188 186 181 176 173 168 159 153 148 137 120 108 104 99 95 94 89 81 74 71 76 85 90 92 94 98 102 103 104 107 108 110 108 101 100 96 89 90 89 88 88 81 80 73 54 41 28 20 14 11 8 5 4 1 359 358 358 358 356 352 349 347 345 344 343 342 341 340 340 340 339 339 338 339 339
201 200 200 198 197 197 199 201 200 198 197 196 193 190 188 184 179 173 168 161 146 126 115 111 102 98 101 99 90 80 77 82 88 90 90 90 94 100 106 109 108 113 120 116 112 97 85 89 80 75 61 34 38 27 356 344 343 342 344 350 349 347 346 343 343 345 347 349 348 345 341 338 337 337 337 337 336 336 336 336 336 336 337 337 338
205 205 204 203 202 201 204 206 205 204 203 202 201 200 198 196 195 192 186 183 177 159 137 127 119 110 115 122 115 95 85 88 94 96 91 83 85 93 104 108 104 106 120 119 111 86 64 37 4 351 338 338 336 331 328 323 322 321 320 327 331 331 331 331 331 334 338 339 339 338 334 331 331 330 331 332 332 332 333 333 334 335 336 337 337
208 208 208 206 207 206 208 210 211 210 209 208 207 206 205 205 207 208 203 199 198 195 181 158 145 138 140 143 134 111 91 90 97 101 95 87 88 92 98 98 86 74 91 106 110 103 343 318 325 323 323 330 330 326 328 327 322 318 315 315 317 318 319 321 323 325 328 330 331 330 328 327 326 326 327 328 329 330 331 333 334 334 335 336 336
210 211 210 210 211 210 211 214 215 215 214 213 213 211 211 211 213 217 217 213 212 213 211 198 181 169 164 164 158 145 116 90 94 102 96 91 93 91 88 87 78 64 66 87 91 27 290 300 314 314 315 323 326 326 328 329 325 320 319 314 309 310 312 314 317 318 320 323 324 323 323 324 323 323 324 326 327 328 330 331 332 333 334 335 336
212 212 212 213 215 214 213 215 217 218 217 217 217 217 217 217 218 221 222 221 221 222 224 221 214 207 198 196 200 202 186 141 119 111 100 101 103 93 80 70 63 60 60 71 71 34 315 308 308 306 309 313 317 322 324 325 323 319 318 315 309 307 310 312 313 315 316 319 320 320 320 320 321 321 323 324 326 327 329 330 331 333 334 335 335
213 214 213 214 216 216 215 216 218 220 220 220 220 220 221 222 222 223 225 226 226 228 230 229 228 228 224 223 226 231 225 209 205 194 136 120 115 101 85 66 50 44 42 43 17 328 318 332 325 310 311 313 315 322 325 326 325 321 319 319 317 311 310 312 312 313 315 317 318 319 319 319 319 321 322 323 325 326 328 329 330 331 332 333 334
213 215 215 214 217 218 217 218 220 221 223 224 224 224 224 225 226 226 228 229 229 231 233 232 233 234 235 235 235 240 242 230 220 221 223 215 181 115 63 35 21 15 11 360 330 312 309 322 323 313 311 313 317 321 326 331 331 327 324 324 323 318 313 312 312 313 314 315 316 318 318 318 319 320 322 323 324 325 327 328 329 330 331 333 333
214 216 217 217 218 219 220 221 222 223 225 228 229 229 228 229 230 229 230 231 232 234 236 235 236 237 239 241 241 244 247 238 229 229 236 245 252 266 283 291 305 327 337 331 320 316 313 310 315 317 312 309 313 317 321 328 330 328 326 325 325 322 317 313 312 311 312 313 315 317 318 318 319 321 322 323 324 324 325 326 328 329 331 332 332
216 218 220 221 221 222 223 223 224 226 227 229 232 232 233 233 233 234 234 234 234 236 238 239 240 240 241 244 245 246 246 241 235 234 238 246 255 267 276 280 283 289 302 315 318 319 319 313 313 318 317 311 308 311 314 319 321 322 322 324 324 323 320 316 312 311 311 312 314 316 318 319 319 321 322 323 323 324 324 326 327 329 330 330 331
218 220 222 223 223 223 224 225 226 227 228 230 232 233 234 235 235 236 237 236 236 237 238 240 242 243 243 245 247 247 246 243 240 240 243 248 254 262 270 273 274 275 279 295 310 313 314 315 315 316 317 313 309 309 310 312 314 315 318 321 323 323 322 318 314 312 311 311 313 315 317 318 319 320 321 322 323 323 324 325 327 328 329 329 330
219 221 223 223 223 223 224 226 227 228 229 230 231 232 233 235 236 237 237 237 238 238 239 240 242 243 244 246 248 248 246 245 244 244 247 251 254 258 263 267 268 271 271 276 291 301 304 307 311 313 313 312 311 309 309 310 310 311 314 318 320 321 321 319 316 313 311 311 311 313 316 318 319 319 319 320 321 322 323 325 326 327 328 328 329
219 221 223 224 224 224 224 226 226 227 228 229 230 230 231 234 235 236 237 237 239 240 241 241 241 243 244 246 248 250 248 246 246 247 249 252 255 257 260 262 264 266 268 270 279 290 297 300 302 306 307 307 307 306 307 309 309 310 312 315 317 318 319 319 316 313 310 308 308 311 314 317 318 319 319 320 320 320 321 323 325 326 327 327 328
220 221 223 224 224 224 225 226 227 228 228 228 229 229 230 232 233 235 237 237 239 241 242 242 243 243 244 246 248 250 251 250 248 248 249 251 255 258 260 260 261 264 266 269 275 284 291 294 296 299 301 300 301 302 303 305 306 309 312 313 313 314 316 317 315 312 309 306 305 307 310 313 316 318 319 319 319 319 319 321 323 325 325 326 327
221 222 223 224 225 225 226 227 228 230 230 230 230 230 230 231 233 235 237 237 239 241 242 243 244 245 245 247 249 250 252 252 250 250 251 252 254 258 261 261 262 264 267 270 274 279 284 288 290 293 294 295 297 299 300 301 303 305 308 310 309 310 311 312 312 310 307 305 303 304 306 309 312 315 317 317 318 318 318 319 320 322 323 324 326
222 223 224 225 226 227 228 229 229 230 231 231 231 231 232 234 235 236 237 238 240 242 244 245 246 247 248 248 250 251 252 253 253 252 252 253 255 258 261 263 264 266 267 269 272 276 279 283 286 287 288 291 293 296 297 298 299 300 302 305 306 306 306 307 308 307 305 303 301 301 303 305 308 311 314 315 315 316 317 318 319 320 321 322 325
222 223 224 225 226 227 229 230 230 230 230 230 231 232 234 236 237 238 239 240 242 244 247 248 248 249 249 250 252 252 253 254 254 255 255 255 257 259 261 263 265 266 268 269 271 273 275 279 282 283 284 286 289 291 292 293 294 296 298 300 301 302 302 302 302 303 303 302 300 298 300 302 304 307 310 311 313 314 315 316 317 318 319 320 323
223 224 224 225 226 227 228 230 230 230 230 230 232 234 235 237 238 240 242 243 244 246 247 249 250 250 250 251 253 253 254 255 256 258 257 257 258 259 261 263 265 267 268 269 271 272 273 276 279 280 281 282 283 285 286 288 289 291 293 295 297 297 298 299 299 300 301 301 300 298 299 300 302 304 307 309 310 312 313 315 315 316 317 318 320
223 224 225 226 227 227 229 229 229 230 231 231 233 235 236 237 239 240 242 244 246 247 248 249 250 252 253 253 254 254 255 256 258 260 260 260 261 261 262 264 266 267 268 269 270 271 273 275 276 278 279 279 280 280 283 285 285 287 289 291 291 292 293 295 297 298 299 300 300 299 298 299 300 302 304 306 308 310 312 313 314 315 316 317 318
224 225 226 227 228 228 230 230 231 231 232 232 233 234 235 236 238 240 242 244 246 248 250 252 252 253 254 255 257 257 257 258 259 260 261 263 263 264 265 266 267 268 269 270 270 271 272 274 275 276 277 278 278 279 281 281 281 282 284 285 286 288 290 292 294 296 298 299 300 300 299 299 300 301 303 304 306 307 309 310 311 313 315 315 316
226 227 228 228 229 229 231 231 232 232 232 232 232 233 234 236 238 241 243 245 247 250 252 253 254 254 255 257 258 259 259 259 260 261 262 263 265 267 268 268 268 269 270 271 271 272 273 274 275 276 277 277 276 276 277 277 277 279 282 283 284 287 289 290 292 293 294 296 297 298 298 298 299 300 301 302 303 304 305 307 308 310 312 313 314
227 228 229 229 230 230 231 231 231 231 231 232 232 233 235 238 241 243 246 248 250 251 253 253 254 255 256 258 259 260 260 261 261 262 263 264 266 268 270 270 271 271 272 272 273 273 274 274 275 275 276 276 275 275 275 275 277 279 280 281 283 285 287 289 290 291 290 291 293 294 294 295 297 298 299 299 299 300 302 303 304 307 309 310 312
227 228 229 230 230 230 230 230 230 230 232 233 233 235 237 240 242 245 248 250 251 252 253 253 255 256 257 259 260 261 262 263 263 264 265 266 267 268 269 270 271 272 272 273 273 274 274 275 276 276 276 276 276 275 275 276 277 277 278 280 281 282 284 285 288 289 287 287 288 290 292 293 294 295 296 296 296 297 299 300 301 303 305 308 310
227 228 229 230 230 230 229 229 230 231 233 235 236 237 239 241 242 245 247 249 251 252 252 253 255 257 259 260 262 263 264 265 266 267 268 268 268 269 270 270 271 272 272 273 274 274 274 275 276 276 276 276 277 276 276 276 277 277 278 279 279 280 281 282 285 286 286 285 286 288 291 292 292 293 293 293 294 294 296 297 298 301 303 305 308
228 229 230 231 231 230 229 229 230 233 235 237 238 240 241 242 242 244 247 249 251 252 253 255 256 258 260 262 263 265 267 267 269 270 271 271 271 271 271 272 273 273 273 274 274 275 275 276 277 277 277 277 277 277 276 276 277 277 277 278 278 278 279 280 282 284 284 284 284 286 289 290 290 290 290 291 291 292 293 294 295 298 301 302 305
228 229 230 231 231 230 230 231 232 234 237 239 240 241 242 243 244 245 248 250 252 254 255 257 259 260 262 263 265 267 269 270 271 272 272 273 274 274 273 274 274 274 274 275 274 275 276 277 277 278 278 277 277 278 277 277 276 276 276 277 277 277 278 279 281 283 283 283 283 285 288 288 287 288 289 289 289 290 291 291 292 295 299 301 302
229 230 231 232 232 231 231 232 233 236 238 240 241 242 243 245 245 246 248 250 252 255 257 259 260 262 264 265 267 268 270 271 272 272 273 274 275 275 276 275 275 276 276 276 275 276 276 277 277 278 279 279 278 279 279 278 277 277 277 278 278 278 278 280 282 282 282 282 282 284 286 287 286 286 287 288 289 289 289 288 289 292 297 299 300
230 231 231 232 233 232 232 233 234 237 239 241 241 243 245 245 246 248 249 250 252 255 257 259 261 263 264 266 267 269 271 272 273 272 273 274 275 275 276 276 277 277 278 277 276 276 276 277 278 279 279 279 279 279 278 278 278 278 278 278 278 278 278 279 280 281 281 280 280 281 283 285 285 284 286 287 288 288 288 286 286 289 293 296 297
231 231 232 233 234 234 234 235 236 238 240 242 242 243 245 245 247 249 251 252 253 255 258 260 261 263 265 265 267 269 271 272 273 273 273 274 275 276 276 277 278 278 279 279 278 277 277 277 278 279 279 279 278 278 277 277 277 277 277 277 277 277 277 278 279 279 279 279 279 279 280 282 283 283 284 286 286 287 286 285 284 286 289 292 293
231 232 233 234 235 236 236 237 238 239 242 243 242 242 244 245 247 250 251 252 255 257 259 261 262 264 265 266 267 269 271 273 273 273 273 274 276 277 278 279 279 279 279 280 279 279 279 278 279 279 278 278 278 278 277 276 275 275 275 275 276 275 275 276 277 278 278 278 276 276 277 280 282 282 282 284 286 285 284 283 282 284 286 288 289
233 233 234 235 236 237 238 238 239 240 242 243 241 241 243 245 247 250 252 253 255 257 260 262 263 264 266 267 268 269 271 273 274 274 275 276 277 278 279 279 280 280 281 280 280 280 280 280 281 280 279 279 278 278 277 276 275 274 274 274 274 273 273 273 274 275 277 277 275 273 275 278 279 278 279 281 284 285 282 280 280 282 283 284 286